User: anonymous   Login
Location: Unspecified
(0.0000°N, 0.0000°E)
Time: 15:22:14
(UTC+00:00)
Language:

SSETI-EXPRESS DEB - Orbit

View from above orbital plane
View from above orbital plane
View from above satellite
View from above satellite

Ground track
Ground track

The orbit data is extracted from the following two-line orbital elements,

1 28897U 05043H   17229.44574785  .00000145  00000-0  36408-4 0  9996
2 28897  97.8686  29.3547 0014931 309.0122  73.0874 14.63859509621834
Epoch (UTC): 17 August 2017 10:41:52
Eccentricity: 0.0014931
inclination: 97.8686°
perigee height: 670 km
apogee height: 691 km
right ascension of ascending node: 29.3547°
argument of perigee: 309.0122°
revolutions per day: 14.63859509
mean anomaly at epoch: 73.0874°
orbit number at epoch: 62183

The dashed part of the orbit path shows where the satellite is in the earth's shadow,  

DLR